Hebron, NE

10:49 AM CST on December 12, 2019 (GMT -0600)
Hebron Municipal

Weather History for KHJH - November, 2019

Change the Weather History Date:

Saturday, November 16, 2019

  Actual Average Record
Temperature  
Mean Temperature 51 °F -  
Max Temperature 64 °F 51 °F 81 °F (2016)
Min Temperature 38 °F 27 °F 2 °F (1955)
Degree Days  
Heating Degree Days 14    
Growing Degree Days 1 (Base 50)    
Moisture  
Dew Point 30 °F    
Average Humidity 52    
Maximum Humidity 67    
Minimum Humidity 29    
Precipitation  
Precipitation 0.00 in - - ()
Sea Level Pressure  
Sea Level Pressure 30.02 in    
Wind  
Wind Speed 11 mph (South)    
Max Wind Speed 18 mph    
Max Gust Speed 24 mph    
Visibility 10 miles    
Events      
Averages and records for this station are not official NWS values.
T = Trace of Precipitation, MM = Missing Value Source: NWS Daily Summary

Daily Weather History Graph

Daily Weather History Graph

Search for Another Location

Airport or City:

Astronomy

Nov. 16, 2019 Rise Set
Actual Time 7:16 AM CST 5:13 PM CST
Civil Twilight 6:47 AM CST 5:42 PM CST
Nautical Twilight 6:14 AM CST 6:14 PM CST
Astronomical Twilight 5:42 AM CST 6:47 PM CST
Moon 8:47 PM CST (11/16) 11:11 AM CST (11/16)
Length of Visible Light 10h 54m
Length of Day
9h 56m
Waning Gibbous, 82% of the Moon is Illuminated
Nov 16
Waning Gibbous
Nov 19
Last Quarter
Nov 26
New
Dec 4
First Quarter
Dec 11
Full

Hourly Weather History & Observations

Time (CST) Temp. Windchill Dew Point Humidity Pressure Visibility Wind Dir Wind Speed Gust Speed Precip Events Conditions
12:15 AM 43.0 °F 36.0 °F 28.9 °F 58% 30.13 in 10.0 mi SSE 13.8 mph 17.3 mph N/A   Clear
12:35 AM 42.8 °F 37.5 °F 28.9 °F 58% 30.13 in 10.0 mi South 9.2 mph - N/A   Clear
12:55 AM 42.3 °F 35.5 °F 28.8 °F 59% 30.12 in 10.0 mi SSE 12.7 mph 18.4 mph N/A   Clear
1:15 AM 42.1 °F 34.9 °F 28.8 °F 59% 30.12 in 10.0 mi SSE 13.8 mph 19.6 mph N/A   Clear
1:35 AM 42.1 °F 35.7 °F 28.8 °F 59% 30.11 in 10.0 mi SSE 11.5 mph 20.7 mph N/A   Clear
1:55 AM 41.9 °F 35.0 °F 28.8 °F 60% 30.11 in 10.0 mi SSE 12.7 mph - N/A   Clear
2:15 AM 41.5 °F 34.2 °F 28.6 °F 60% 30.11 in 10.0 mi South 13.8 mph 18.4 mph N/A   Clear
2:35 AM 41.4 °F 34.3 °F 28.6 °F 60% 30.10 in 10.0 mi SSE 12.7 mph 18.4 mph N/A   Clear
2:55 AM 41.5 °F 34.6 °F 28.4 °F 60% 30.10 in 10.0 mi South 12.7 mph 18.4 mph N/A   Clear
3:15 AM 41.4 °F 34.7 °F 28.4 °F 60% 30.10 in 10.0 mi SSE 11.5 mph 17.3 mph N/A   Clear
3:35 AM 41.0 °F 33.9 °F 28.4 °F 61% 30.09 in 10.0 mi SSE 12.7 mph 17.3 mph N/A   Clear
3:55 AM 41.0 °F 33.1 °F 28.6 °F 61% 30.09 in 10.0 mi SSE 15.0 mph - N/A   Clear
4:15 AM 41.2 °F 34.5 °F 28.8 °F 61% 30.09 in 10.0 mi SSE 11.5 mph - N/A   Clear
4:35 AM 41.4 °F 35.2 °F 28.9 °F 61% 30.08 in 10.0 mi SSE 10.4 mph 17.3 mph N/A   Clear
4:55 AM 41.9 °F 35.9 °F 29.1 °F 61% 30.10 in 10.0 mi South 10.4 mph 16.1 mph N/A   Clear
5:15 AM 41.4 °F 35.2 °F 28.9 °F 61% 30.10 in 10.0 mi South 10.4 mph 16.1 mph N/A   Clear
5:35 AM 40.8 °F 35.0 °F 28.8 °F 62% 30.10 in 10.0 mi South 9.2 mph - N/A   Clear
5:55 AM 40.1 °F 32.7 °F 28.6 °F 63% 30.09 in 10.0 mi South 12.7 mph - N/A   Clear
6:15 AM 39.7 °F 31.9 °F 28.4 °F 64% 30.09 in 10.0 mi South 13.8 mph - N/A   Clear
6:35 AM 39.4 °F 31.1 °F 28.4 °F 65% 30.08 in 10.0 mi SSE 15.0 mph - N/A   Clear
6:55 AM 39.2 °F 31.2 °F 28.4 °F 65% 30.08 in 10.0 mi SSE 13.8 mph - N/A   Clear
7:15 AM 39.2 °F 30.8 °F 28.4 °F 65% 30.08 in 10.0 mi South 15.0 mph - N/A   Clear
7:35 AM 38.8 °F 31.2 °F 28.4 °F 66% 30.08 in 10.0 mi SSE 12.7 mph - N/A   Clear
7:55 AM 39.2 °F 31.6 °F 28.8 °F 66% 30.07 in 10.0 mi SSE 12.7 mph - N/A   Clear
8:15 AM 40.1 °F 32.0 °F 28.9 °F 64% 30.07 in 10.0 mi SSE 15.0 mph 19.6 mph N/A   Clear
8:35 AM 41.4 °F 34.3 °F 29.1 °F 62% 30.06 in 10.0 mi SSE 12.7 mph 20.7 mph N/A   Clear
8:55 AM 43.0 °F 36.4 °F 29.3 °F 59% 30.07 in 10.0 mi South 12.7 mph 21.9 mph N/A   Clear
9:15 AM 43.9 °F 36.8 °F 29.8 °F 58% 30.06 in 10.0 mi South 15.0 mph 20.7 mph N/A   Clear
9:35 AM 45.0 °F 38.5 °F 30.2 °F 56% 30.05 in 10.0 mi South 13.8 mph 20.7 mph N/A   Clear
9:55 AM 46.8 °F - 30.6 °F 53% 30.05 in 10.0 mi South 13.8 mph 21.9 mph N/A   Clear
10:15 AM 48.7 °F - 31.1 °F 51% 30.04 in 10.0 mi South 15.0 mph 19.6 mph N/A   Clear
10:35 AM 49.5 °F - 31.1 °F 49% 30.04 in 10.0 mi South 11.5 mph 19.6 mph N/A   Clear
10:55 AM 51.6 °F - 31.5 °F 46% 30.03 in 10.0 mi South 13.8 mph 17.3 mph N/A   Clear
11:15 AM 53.2 °F - 31.5 °F 43% 30.02 in 10.0 mi South 13.8 mph 18.4 mph N/A   Clear
11:35 AM 55.4 °F - 31.8 °F 41% 30.01 in 10.0 mi South 13.8 mph 18.4 mph N/A   Clear
11:55 AM 57.2 °F - 31.5 °F 38% 30.00 in 10.0 mi South 16.1 mph 19.6 mph N/A   Clear
12:15 PM 58.5 °F - 31.3 °F 36% 29.98 in 10.0 mi South 13.8 mph 19.6 mph N/A   Clear
12:35 PM 59.9 °F - 31.5 °F 34% 29.97 in 10.0 mi South 15.0 mph 19.6 mph N/A   Clear
12:55 PM 60.8 °F - 30.9 °F 32% 29.96 in 10.0 mi South 12.7 mph 21.9 mph N/A   Clear
1:15 PM 62.1 °F - 31.1 °F 31% 29.94 in 10.0 mi South 15.0 mph - N/A   Clear
1:35 PM 62.8 °F - 31.1 °F 30% 29.94 in 10.0 mi SSW 18.4 mph 24.2 mph N/A   Clear
1:55 PM 63.1 °F - 30.9 °F 30% 29.93 in 10.0 mi SSW 16.1 mph 21.9 mph N/A   Clear
2:15 PM 63.7 °F - 30.9 °F 29% 29.92 in 10.0 mi SSE 12.7 mph - N/A   Clear
2:35 PM 64.0 °F - 31.1 °F 29% 29.91 in 10.0 mi South 10.4 mph 17.3 mph N/A   Clear
2:55 PM 63.0 °F - 30.7 °F 30% 29.91 in 10.0 mi South 13.8 mph 19.6 mph N/A   Clear
3:15 PM 63.1 °F - 30.6 °F 29% 29.90 in 10.0 mi South 12.7 mph - N/A   Clear
3:35 PM 62.1 °F - 30.2 °F 30% 29.90 in 10.0 mi South 12.7 mph - N/A   Clear
3:55 PM 61.7 °F - 30.2 °F 30% 29.91 in 10.0 mi South 9.2 mph - N/A   Clear
4:15 PM 61.0 °F - 30.2 °F 31% 29.91 in 10.0 mi South 8.1 mph - N/A   Clear
4:35 PM 60.3 °F - 30.0 °F 32% 29.91 in 10.0 mi South 8.1 mph - N/A   Clear
4:55 PM 59.0 °F - 30.2 °F 34% 29.92 in 10.0 mi South 9.2 mph - N/A   Clear
5:15 PM 57.7 °F - 30.2 °F 35% 29.93 in 10.0 mi South 6.9 mph - N/A   Clear
5:35 PM 55.0 °F - 30.7 °F 40% 29.93 in 10.0 mi South 4.6 mph - N/A   Clear
5:55 PM 52.9 °F - 30.7 °F 43% 29.93 in 10.0 mi South 3.5 mph - N/A   Clear
6:15 PM 51.1 °F - 30.9 °F 46% 29.93 in 10.0 mi South 3.5 mph - N/A   Clear
6:35 PM 49.1 °F - 31.1 °F 50% 29.95 in 10.0 mi Calm Calm - N/A   Clear
6:55 PM 47.5 °F - 31.3 °F 53% 29.96 in 10.0 mi Calm Calm - N/A   Clear
7:15 PM 46.2 °F - 31.6 °F 57% 29.96 in 10.0 mi Calm Calm - N/A   Clear
7:35 PM 44.8 °F - 31.5 °F 60% 29.97 in 10.0 mi Calm Calm - N/A   Clear
8:15 PM 45.5 °F - 31.8 °F 59% 29.99 in 10.0 mi Calm Calm - N/A   Clear
8:35 PM 43.9 °F - 31.8 °F 63% 29.98 in 10.0 mi Calm Calm - N/A   Clear
8:55 PM 43.3 °F - 32.0 °F 64% 29.98 in 10.0 mi Calm Calm - N/A   Clear
9:15 PM 42.4 °F - 32.0 °F 67% 29.98 in 10.0 mi Calm Calm - N/A   Clear
9:35 PM 43.2 °F - 32.0 °F 65% 29.98 in 10.0 mi Calm Calm - N/A   Clear
9:55 PM 44.4 °F - 32.0 °F 62% 29.98 in 10.0 mi Calm Calm - N/A   Clear
10:15 PM 44.4 °F 41.2 °F 32.0 °F 62% 29.99 in 10.0 mi West 5.8 mph - N/A   Clear
10:35 PM 45.7 °F 42.0 °F 32.9 °F 61% 29.99 in 10.0 mi NW 6.9 mph - N/A   Clear
10:55 PM 47.3 °F - 34.5 °F 61% 29.99 in 10.0 mi NNW 9.2 mph - N/A   Clear
11:15 PM 46.8 °F - 35.1 °F 64% 30.00 in 10.0 mi NNW 6.9 mph - N/A   Clear
11:35 PM 46.9 °F - 35.6 °F 65% 30.01 in 10.0 mi NNW 12.7 mph - N/A   Clear
11:55 PM 46.6 °F - 35.6 °F 66% 30.02 in 10.0 mi NNW 8.1 mph - N/A   Clear